Вернуться в каталог

STARLINK-37789

АктивенСвязьSSO
NORAD 69495·PAYLOAD·🇺🇸 United States

Запущен Jun 11, 2026 с Vandenberg Space Force Base

Loading…

Ближайшие Пролёты (ближайшие 24 часа)

TLE

СвежийSource: CelesTrak SupGP

Эпоха: Sep 15, 2026, 04:37 UTC

1 69495C 26131T   26258.19284722 -.00057691  00000+0 -17912-2 0  2583
2 69495  97.2835 279.1778 0001343  92.2873  31.6592 15.33462667    12

Отслеживайте STARLINK-37789 в реальном времени с AllMySat

Download on the App Store